Location: *
(46.1833°N, 22.7667°E)
Time: 06:22:14
(UTC+00:00)

USA 186 - Pass Details

Date: 17 September 2019
Orbit: 261 x 450 km, 96.9° (Epoch: 07 October)

Event Time Altitude Azimuth Distance (km) Brightness Sun altitude
Exits shadow 18:48:04 10° 215° (SW) 1,545 4.7 -22.4°
Maximum altitude 18:50:41 22° 267° (W) 1,049 4.3 -22.8°
Drops below altitude 10° 18:53:24 10° 319° (NW) 1,596 5.7 -23.2°
Sets 18:55:48 0° 335° (NNW) 2,478 6.5 -23.6°
